Regional Weather Roundup
Issued by NWS

Home | Current Version | Previous Version | Graphics & Text | Print | Product List | Glossary Off
Versions: 1 2 3 4 5 6 7 8 9 10 11 12 13 14 15 16 17 18 19 20 21 22 23 24 25 26 27 28 29 30 31 32 33 34 35 36 37 38 39 40 41 42 43 44 45 46 47 48 49 50

000
ASUS43 KTOP 072059
RWRKS

WEATHER ROUNDUP FOR KANSAS
NATIONAL WEATHER SERVICE GOODLAND KS
300 PM CST SUN FEB 07 2016

NOTE:  "FAIR" INDICATES FEW OR NO CLOUDS BELOW 12,000 FEET WITH NO
SIGNIFICANT WEATHER AND/OR OBSTRUCTIONS TO VISIBILITY.

KSZ001>006-013>018-027>032-041>047-072200-
NORTHWEST KANSAS

CITY           SKY/WX    TMP DP  RH WIND       PRES   REMARKS
GOODLAND       PTSUNNY   37  19  48 NW24      30.27S WCI  26
HAYS           PTSUNNY   45  23  42 NW25G33   30.20F
HILL CITY      PTSUNNY   40  25  55 NW18G25   30.21F WCI  31
RUSSELL        PTSUNNY   44  28  53 NW20      30.18F
$$

KSZ061>065-074>080-084>089-072200-
SOUTHWEST KANSAS

CITY           SKY/WX    TMP DP  RH WIND       PRES   REMARKS
DODGE CITY     MOSUNNY   47  19  33 NW26G33   30.25F
ELKHART          N/A     48  18  30 N20         N/A
GARDEN CITY    MOSUNNY   45  18  34 N26G36    30.27F
GREAT BEND     CLOUDY    45  25  45 NW17      30.20F
LIBERAL        SUNNY     52  19  28 N28G36    30.27R
$$

KSZ066>073-081>083-090>101-072200-
SOUTHEAST KANSAS

CITY           SKY/WX    TMP DP  RH WIND       PRES   REMARKS
CHANUTE        PTSUNNY   55  23  28 NW23G30   30.08F
COFFEYVILLE    MOSUNNY   58  19  22 NW28G33   30.10S
HUTCHINSON     CLOUDY    50  18  28 NW20G28   30.18R
MEDICINE LODGE   N/A     54  21  27 N21G31    30.18S
NEWTON         SUNNY     52  19  28 NW24G37   30.16R
PARSONS        SUNNY     57  21  24 NW24G31   30.10R
WICHITA INTL   MOSUNNY   55  20  25 N24G35    30.16R
WICHITA JABRA  MOSUNNY   54  21  27 NW29G39   30.15R
WINFIELD       MOSUNNY   57  22  25 NW25G33   30.15R
$$

KSZ007>012-019>026-033>040-048>060-102>105-072200-
NORTHEAST KANSAS

CITY           SKY/WX    TMP DP  RH WIND       PRES   REMARKS
CONCORDIA      SUNNY     47  23  38 W31G39    30.09F
EMPORIA        PTSUNNY   52  19  27 NW21G35   30.08S
LAWRENCE       MOSUNNY   51  25  36 NW18G31   30.04S
MANHATTAN      MOSUNNY   52  17  25 NW14G26   30.10S
OLATHE IND     PTSUNNY   50  20  30 NW29G37   30.02F
OLATHE EXE     PTSUNNY   50  22  33 NW16G26   30.01F
SALINA         MOSUNNY   53  13  20 NW26G36   30.13F
TOPEKA BILLARD MOSUNNY   51  20  29 NW16G33   30.04F
TOPEKA FORBES  MOSUNNY   53  23  31 NW22G29   30.04F
$$



USA.gov is the U.S. government's official web portal to all federal, state and local government web resources and services.